CW0930 Weather Reports


Display with metric or nautical units.
time (UTC)temp
F
wind
direction
speed
MPH
gust
MPH
rain 1hr
in
rain 24hr
in
rain mn
in
humidity
%
barometer
mb
20210123081021 32 318 2.0 3.0 0.00 0.00 0.00 65 1026.4
20210123080028 32 311 1.0 5.0 0.00 0.00 0.00 66 1026.3
20210123075019 32 316 1.0 3.0 0.00 0.00 0.00 65 1026.2
20210123074021 32 310 1.0 6.0 0.00 0.00 0.00 67 1026.2
20210123073027 31 330 1.0 3.0 0.00 0.00 0.00 67 1026.2
20210123072034 31 312 2.0 5.0 0.00 0.00 0.00 67 1026.1
20210123071022 31 322 1.0 7.0 0.00 0.00 0.00 69 1026.0
20210123070031 31 322 2.0 3.0 0.00 0.00 0.00 71 1026.0
20210123065032 31 333 2.0 7.0 0.00 0.00 0.00 71 1025.8
20210123064028 31 318 1.0 7.0 0.00 0.00 0.00 72 1025.7
20210123063031 31 329 2.0 6.0 0.00 0.00 0.00 72 1025.5
20210123062027 31 333 2.0 7.0 0.00 0.00 0.00 73 1025.5
20210123061024 31 317 1.0 3.0 0.00 0.00 0.00 73 1025.5
20210123060027 31 341 1.0 3.0 0.00 0.00 0.00 73 1025.5
20210123055026 31 336 1.0 3.0 0.00 0.00 0.00 73 1025.5
20210123054024 31 285 0.0 3.0 0.00 0.00 0.00 72 1025.5
20210123053040 31 349 0.0 2.0 0.00 0.00 0.00 72 1025.6
20210123052023 31 309 1.0 3.0 0.00 0.00 0.00 72 1025.6
20210123051019 31 335 1.0 3.0 0.00 0.00 0.00 72 1025.5
20210123050039 31 311 1.0 3.0 0.00 0.00 0.00 72 1025.5
20210123045022 31 5 0.0 3.0 0.00 0.00 0.00 72 1025.6
20210123044029 31 316 1.0 5.0 0.00 0.00 0.00 72 1025.5
20210123043031 32 324 1.0 3.0 0.00 0.00 0.00 72 1025.5
20210123042023 32 356 1.0 3.0 0.00 0.00 0.00 72 1025.5
20210123041024 32 329 1.0 5.0 0.00 0.00 0.00 71 1025.5
20210123040037 32 322 2.0 6.0 0.00 0.00 0.00 70 1025.5
20210123035022 33 319 2.0 6.0 0.00 0.00 0.00 69 1025.4
20210123034031 33 336 2.0 6.0 0.00 0.00 0.00 67 1025.4
20210123033028 33 335 3.0 8.0 0.00 0.00 0.00 66 1025.3
20210123032028 33 328 2.0 3.0 0.00 0.00 0.00 65 1025.1
20210123031024 34 304 2.0 5.0 0.00 0.00 0.00 64 1025.1
20210123030036 34 351 2.0 6.0 0.00 0.00 0.00 62 1025.0
20210123025021 34 319 2.0 5.0 0.00 0.00 0.00 60 1025.0
20210123024018 35 343 2.0 10.0 0.00 0.00 0.00 59 1025.0
20210123023043 35 330 2.0 7.0 0.00 0.00 0.00 58 1024.9
20210123022038 35 327 2.0 6.0 0.00 0.00 0.00 59 1024.9
20210123021023 35 334 3.0 7.0 0.00 0.00 0.00 57 1024.8
20210123020031 35 332 2.0 6.0 0.00 0.00 0.00 56 1024.7
20210123015027 36 341 4.0 12.0 0.00 0.00 0.00 54 1024.6
20210123014026 36 321 3.0 8.0 0.00 0.00 0.00 55 1024.6
20210123013029 36 328 3.0 12.0 0.00 0.00 0.00 54 1024.6
20210123012025 36 314 3.0 6.0 0.00 0.00 0.00 55 1024.5
20210123011021 36 327 3.0 9.0 0.00 0.00 0.00 53 1024.6
20210123010036 36 320 4.0 9.0 0.00 0.00 0.00 53 1024.8
20210123005030 36 319 5.0 8.0 0.00 0.00 0.00 52 1024.8
20210123004023 37 320 5.0 8.0 0.00 0.00 0.00 51 1024.8
20210123003033 37 308 3.0 9.0 0.00 0.00 0.00 50 1024.9
20210123002026 37 321 4.0 7.0 0.00 0.00 0.00 50 1024.8
20210123001024 37 312 3.0 8.0 0.00 0.00 0.00 49 1024.8
20210123000048 37 324 2.0 9.0 0.00 0.00 0.00 48 1024.7
20210122235022 37 320 2.0 5.0 0.00 0.00 0.00 48 1024.7
20210122234031 38 321 2.0 6.0 0.00 0.00 0.00 48 1024.7
20210122233034 38 320 2.0 7.0 0.00 0.00 0.00 47 1024.6
20210122232021 39 321 2.0 7.0 0.00 0.00 0.00 45 1024.3
20210122231024 39 352 3.0 7.0 0.00 0.00 0.00 44 1024.2
20210122230038 39 315 2.0 6.0 0.00 0.00 0.00 46 1024.1
20210122225020 40 321 2.0 5.0 0.00 0.00 0.00 45 1024.0
20210122224023 40 313 2.0 5.0 0.00 0.00 0.00 44 1023.9
20210122223024 41 318 3.0 8.0 0.00 0.00 0.00 44 1023.9
20210122222018 42 307 2.0 7.0 0.00 0.00 0.00 45 1023.7
20210122221032 43 318 2.0 6.0 0.00 0.00 0.00 42 1023.6
20210122220038 43 317 4.0 8.0 0.00 0.00 0.00 42 1023.6
20210122215021 44 324 3.0 9.0 0.00 0.00 0.00 41 1023.5
20210122214025 44 323 2.0 8.0 0.00 0.00 0.00 40 1023.4
20210122213021 44 333 3.0 8.0 0.00 0.00 0.00 42 1023.2
20210122212023 44 322 3.0 10.0 0.00 0.00 0.00 41 1023.2
20210122211022 44 322 4.0 12.0 0.00 0.00 0.00 41 1023.2
20210122210025 44 302 2.0 7.0 0.00 0.00 0.00 40 1023.1
20210122205024 44 10 5.0 12.0 0.00 0.00 0.00 40 1022.9
20210122204020 44 309 4.0 10.0 0.00 0.00 0.00 40 1023.1
20210122203026 44 331 5.0 10.0 0.00 0.00 0.00 39 1023.0
20210122202023 44 0 2.0 10.0 0.00 0.00 0.00 43 1023.1
20210122201019 43 313 3.0 9.0 0.00 0.00 0.00 44 1023.0
20210122200027 43 312 3.0 9.0 0.00 0.00 0.00 43 1022.9
20210122195031 43 338 3.0 8.0 0.00 0.00 0.00 42 1022.7
20210122194020 44 311 4.0 12.0 0.00 0.00 0.00 42 1022.9
20210122193031 44 347 3.0 8.0 0.00 0.00 0.00 42 1022.8
20210122192059 44 285 3.0 8.0 0.00 0.00 0.00 41 1022.9
20210122191035 44 302 4.0 12.0 0.00 0.00 0.00 44 1023.2
20210122190042 45 309 4.0 9.0 0.00 0.00 0.00 42 1023.2
20210122185020 44 326 2.0 12.0 0.00 0.00 0.00 43 1023.2
20210122184029 44 300 3.0 7.0 0.00 0.01 0.00 42 1023.4
20210122183033 42 316 3.0 8.0 0.00 0.01 0.00 43 1023.6
20210122182021 42 341 3.0 8.0 0.00 0.01 0.00 43 1023.5
20210122181025 42 321 3.0 7.0 0.00 0.01 0.00 45 1023.7
20210122180027 41 308 3.0 8.0 0.00 0.01 0.00 42 1024.1
20210122175019 42 21 3.0 9.0 0.00 0.01 0.00 43 1023.9
20210122174021 41 323 2.0 10.0 0.00 0.01 0.00 45 1024.1
20210122173037 42 309 3.0 10.0 0.00 0.01 0.00 41 1024.3
20210122172024 43 338 3.0 10.0 0.00 0.01 0.00 45 1024.6
20210122171018 43 300 3.0 6.0 0.00 0.01 0.00 44 1024.8
20210122170021 42 322 1.0 6.0 0.00 0.01 0.00 44 1024.9
20210122165027 43 325 2.0 6.0 0.00 0.01 0.00 44 1024.7
20210122164032 43 315 2.0 10.0 0.00 0.01 0.00 43 1024.8
20210122163032 42 321 2.0 8.0 0.00 0.01 0.00 42 1024.9
20210122162034 42 312 1.0 3.0 0.00 0.01 0.00 44 1024.7
20210122161021 41 296 1.0 5.0 0.00 0.01 0.00 43 1024.9
20210122160027 41 309 1.0 3.0 0.00 0.01 0.00 45 1024.9
20210122155021 40 255 1.0 5.0 0.00 0.01 0.00 46 1025.2
20210122154018 39 269 0.0 7.0 0.00 0.01 0.00 48 1025.2
20210122153031 40 293 1.0 7.0 0.00 0.01 0.00 44 1025.3
20210122152026 41 317 2.0 6.0 0.00 0.01 0.00 42 1024.9
20210122151021 40 332 2.0 5.0 0.00 0.02 0.00 45 1024.8
20210122150041 40 311 1.0 3.0 0.00 0.02 0.00 45 1024.1
20210122145024 39 298 1.0 5.0 0.00 0.02 0.00 46 1024.1
20210122144019 37 0 0.0 2.0 0.00 0.02 0.00 48 1024.2
20210122143036 36 19 0.0 3.0 0.00 0.02 0.00 52 1024.2
20210122142023 35 320 0.0 3.0 0.00 0.02 0.00 53 1024.2
20210122141031 35 264 2.0 5.0 0.00 0.02 0.00 50 1024.1
20210122140027 35 100 0.0 3.0 0.00 0.02 0.00 52 1023.9
20210122135020 35 111 0.0 2.0 0.00 0.02 0.00 51 1023.8
20210122134021 35 338 1.0 3.0 0.00 0.02 0.00 50 1023.5
20210122133039 35 61 0.0 2.0 0.00 0.03 0.00 50 1023.2
20210122132024 35 59 0.0 2.0 0.00 0.03 0.00 54 1023.2
20210122131029 35 72 0.0 2.0 0.00 0.03 0.00 54 1023.3
20210122130039 35 291 0.0 1.0 0.00 0.03 0.00 52 1023.2
20210122125022 35 232 0.0 0.0 0.00 0.04 0.00 54 1023.1
20210122124022 35 254 0.0 1.0 0.00 0.05 0.00 53 1022.8
20210122123026 35 335 0.0 1.0 0.00 0.05 0.00 53 1022.3
20210122122024 35 315 0.0 3.0 0.00 0.05 0.00 53 1022.4
20210122121020 35 6 0.0 1.0 0.00 0.06 0.00 52 1022.4
20210122120032 35 6 0.0 1.0 0.00 0.07 0.00 51 1022.4
20210122115021 35 285 0.0 1.0 0.00 0.07 0.00 52 1022.4
20210122114024 35 247 0.0 0.0 0.00 0.07 0.00 52 1022.7
20210122113054 35 248 0.0 0.0 0.00 0.07 0.00 51 1022.8
20210122112024 36 25 0.0 0.0 0.00 0.08 0.00 50 1022.4
20210122111030 35 97 0.0 0.0 0.00 0.08 0.00 50 1022.2
20210122110032 35 97 0.0 1.0 0.00 0.09 0.00 50 1022.0
20210122105018 36 201 1.0 3.0 0.00 0.09 0.00 51 1022.0
20210122104019 35 267 0.0 0.0 0.00 0.09 0.00 52 1022.3
20210122103026 35 266 0.0 1.0 0.00 0.09 0.00 51 1021.9
20210122102028 35 235 0.0 0.0 0.00 0.09 0.00 52 1021.9
20210122101020 35 235 0.0 0.0 0.00 0.10 0.00 52 1021.9
20210122100035 35 203 0.0 0.0 0.00 0.10 0.00 52 1021.8
20210122095017 35 171 0.0 0.0 0.00 0.10 0.00 52 1021.7
20210122094024 35 221 0.0 1.0 0.00 0.10 0.00 53 1022.0
20210122093021 36 215 0.0 0.0 0.00 0.10 0.00 54 1021.9
20210122092020 36 214 0.0 0.0 0.00 0.10 0.00 52 1021.9
20210122091022 37 214 0.0 1.0 0.00 0.10 0.00 48 1022.1
20210122090036 37 316 0.0 1.0 0.00 0.10 0.00 48 1021.6
20210122085022 37 348 0.0 1.0 0.00 0.10 0.00 50 1021.8
20210122084027 37 39 0.0 2.0 0.00 0.10 0.00 50 1021.8
20210122083029 37 301 0.0 1.0 0.00 0.10 0.00 50 1021.8
20210122082019 37 298 0.0 2.0 0.00 0.10 0.00 50 1021.8